GFSNE_925_thetae_054.txt.gz
Theta_e
325 323 321 318 314 313 310 309 308 305 300 294 294 295 293 292 293 293 293 293 291 291 292 294 294 296 294 294 294 294 294 294 294 295 295 296 297 298
324 321 320 318 314 311 309 305 305 305 298 293 293 293 293 294 294 294 291 291 290 290 292 294 294 293 293 292 292 293 293 293 293 294 294 295 296 296
319 317 316 312 307 305 302 301 300 301 297 293 294 293 293 293 290 291 291 291 291 293 294 292 291 291 291 291 291 291 291 292 292 292 293 294 294 294
311 310 308 303 300 298 298 298 299 300 300 293 291 290 290 290 290 290 291 292 293 290 289 290 290 290 290 290 290 290 290 291 291 291 292 292 293 293
304 302 301 299 296 295 296 296 295 295 296 295 290 290 290 291 291 291 290 289 288 288 288 289 288 288 288 289 290 290 290 290 290 290 290 291 291 291
298 297 296 295 295 294 294 294 293 292 292 291 290 290 290 290 289 288 288 288 288 287 287 287 287 287 288 288 289 288 288 289 289 289 290 290 290 290
293 293 294 294 294 293 293 292 292 291 291 290 290 289 289 289 288 289 288 287 287 286 286 286 286 286 286 286 286 286 287 288 289 289 289 289 290 290
291 291 292 291 291 291 291 290 290 290 290 290 290 289 289 288 288 287 287 286 284 285 285 285 285 285 285 286 286 287 288 288 288 289 289 289 289 289
290 290 290 289 288 288 287 288 288 289 289 288 288 288 287 286 286 286 285 285 285 285 285 285 285 285 285 285 286 286 287 288 288 288 288 289 289 289
287 286 286 285 285 286 286 286 286 286 286 286 286 286 286 285 285 285 285 284 284 284 284 285 285 285 285 285 285 286 286 287 288 288 288 288 288 288
286 285 285 284 285 286 286 286 286 286 286 286 285 285 284 285 285 285 284 284 283 284 283 283 284 285 284 285 285 285 286 285 285 286 287 287 287 287
284 283 284 285 286 286 286 285 285 284 284 284 283 284 283 283 283 284 283 282 283 283 283 283 283 283 283 283 283 283 283 283 284 284 284 285 286 286
284 284 284 285 285 284 284 284 284 284 283 283 283 282 282 283 283 283 283 283 283 282 282 283 283 282 281 282 282 282 281 282 281 281 282 283 284 285
284 284 284 284 283 282 282 281 282 282 281 281 281 282 283 283 283 283 283 282 282 282 282 281 281 281 281 281 281 281 281 281 281 281 281 282 283 283
283 283 282 282 281 280 281 281 281 280 281 281 282 283 283 283 282 281 281 281 281 282 281 281 281 281 281 281 281 281 282 282 281 281 282 281 282 282
282 282 282 281 280 280 280 280 280 281 281 281 281 281 281 281 281 281 281 281 281 281 281 281 282 282 282 282 282 282 282 282 282 282 282 282 282 283
282 280 279 279 280 280 280 281 281 281 281 281 281 281 280 280 280 280 280 280 280 280 281 281 282 282 282 282 282 282 282 282 283 283 283 283 283 284
280 279 279 279 280 280 281 281 281 281 281 280 280 279 279 279 279 279 279 279 279 280 280 281 282 282 282 283 283 282 283 283 284 284 284 284 284 284
278 278 278 279 280 280 280 280 280 280 280 279 279 279 279 279 279 279 279 279 279 279 280 281 281 282 283 284 284 284 284 284 284 284 284 284 283 284
278 278 278 278 279 279 279 279 279 279 279 279 279 278 278 278 279 278 279 279 279 279 279 280 281 282 283 283 283 283 283 283 284 283 283 284 284 284
278 278 278 278 278 278 279 279 279 279 279 279 279 278 278 279 279 279 279 280 280 280 280 280 280 281 282 281 282 283 283 284 284 284 285 285 285 286
277 277 277 277 277 277 278 278 278 278 278 278 278 278 278 278 279 279 279 279 279 279 279 279 280 280 281 282 283 283 283 284 285 286 286 286 286 286
277 277 277 277 277 277 277 277 277 277 277 277 277 277 277 278 278 278 278 279 279 279 279 280 280 281 281 282 283 284 285 285 286 286 286 286 286 286

GFSNE_925_thetae_057.txt.gz
Theta_e
323 323 323 320 318 316 315 314 313 313 301 296 297 298 298 298 299 300 299 299 296 296 295 295 295 295 296 297 297 296 296 295 295 296 296 297 297 298
321 323 322 320 318 315 309 307 308 310 307 296 295 296 298 299 299 298 295 295 295 294 293 294 294 295 296 295 295 294 294 294 294 294 295 295 296 296
318 318 317 313 311 307 305 304 304 304 300 295 295 295 295 296 293 293 293 294 294 293 292 294 295 295 294 293 293 293 293 293 293 293 293 294 295 295
309 311 311 307 305 303 301 300 300 300 301 294 292 292 291 292 292 292 292 292 291 292 292 292 292 291 291 292 292 291 291 291 292 292 292 293 293 293
303 301 300 300 300 298 297 297 297 297 297 295 291 290 290 291 291 291 292 291 291 289 289 290 290 290 289 289 290 290 291 291 291 291 291 291 291 292
297 297 296 295 295 295 294 294 294 294 294 294 292 290 291 290 290 290 289 288 288 288 287 287 287 287 288 288 289 288 288 289 289 290 290 290 291 291
293 293 293 294 294 294 294 293 292 292 291 291 290 290 290 289 289 288 288 288 287 287 286 285 285 285 285 285 286 286 286 288 289 290 290 290 290 290
292 292 292 292 292 292 291 291 291 290 290 290 290 289 288 288 288 287 287 286 285 285 285 284 284 285 286 286 286 287 288 288 289 289 289 290 290 290
290 290 290 289 289 287 288 288 288 289 289 288 288 287 286 286 286 286 285 285 284 284 284 284 284 285 285 285 285 286 287 288 288 289 289 289 289 289
286 286 286 285 285 286 285 286 286 286 286 286 286 285 285 285 285 285 284 284 284 284 283 284 285 284 285 285 285 285 286 287 287 287 287 287 288 288
284 284 284 284 286 287 286 286 286 286 286 286 285 285 285 285 285 285 284 284 283 283 283 283 283 283 284 285 285 285 285 285 285 285 286 286 286 287
283 283 284 285 286 286 285 285 284 284 284 284 283 283 283 283 283 283 283 283 282 282 283 283 283 282 282 283 283 283 283 283 282 283 283 284 284 285
284 283 284 285 284 284 284 283 283 283 283 282 282 282 282 282 283 283 283 283 282 282 282 282 282 282 282 282 282 282 281 282 282 282 282 282 282 284
283 283 283 283 283 282 282 282 282 282 281 281 281 282 282 283 283 282 282 282 281 281 281 281 281 281 281 281 281 282 282 282 282 282 282 282 282 283
283 283 283 282 281 280 280 281 281 280 280 281 281 282 282 282 282 281 281 281 281 281 281 281 281 281 281 281 281 281 282 282 282 283 283 282 283 283
282 281 280 281 280 280 280 280 280 280 281 281 281 281 281 280 280 280 280 280 280 281 281 281 281 281 281 281 281 282 282 282 282 282 282 282 283 283
282 280 279 279 279 280 280 281 281 281 281 281 280 280 280 279 279 279 279 279 279 279 279 280 280 281 282 282 282 282 282 282 282 282 282 282 282 283
281 279 278 279 279 279 280 280 280 280 280 280 280 279 279 279 279 279 279 279 279 279 279 279 280 280 281 282 282 282 282 282 283 283 283 282 283 283
279 279 278 278 278 279 279 279 280 279 279 279 279 279 279 279 279 279 279 279 279 279 279 279 279 280 280 281 281 282 283 283 283 283 283 283 283 283
278 277 277 278 278 278 278 279 279 279 279 278 278 278 278 278 278 278 278 278 278 278 278 279 279 279 280 281 281 281 282 282 282 282 282 283 283 283
278 278 277 277 277 277 277 277 278 278 278 279 278 278 277 278 278 278 278 279 280 280 279 279 279 279 280 280 280 280 281 281 282 283 283 283 284 284
278 277 277 277 277 277 277 277 277 277 277 277 277 277 277 277 277 277 278 278 278 278 278 278 279 279 279 279 280 280 281 281 282 282 283 284 285 285
277 277 277 277 276 276 276 276 276 276 276 276 276 276 276 276 276 277 277 278 278 278 278 278 279 279 279 280 280 281 281 281 282 283 284 285 285 285

GFSNE_925_thetae_060.txt.gz
Theta_e
319 319 321 321 321 321 317 315 313 312 304 301 299 299 298 300 302 302 302 300 299 301 300 299 299 298 298 298 298 299 300 299 299 298 298 298 298 298
315 315 316 317 318 315 312 311 311 308 308 304 299 301 297 297 298 298 298 299 300 299 297 297 297 296 296 297 298 298 298 297 297 296 296 296 297 297
312 312 311 309 309 308 307 306 306 305 303 298 296 297 297 297 296 297 298 297 297 296 296 296 295 295 296 297 297 295 295 294 294 294 294 295 295 296
304 304 304 303 302 300 300 300 301 301 301 296 293 292 292 293 294 294 294 294 294 294 292 292 293 294 294 294 293 293 293 292 292 292 293 293 294 294
299 299 299 299 298 297 296 296 296 297 298 297 292 292 292 292 292 292 292 292 290 291 291 291 292 292 292 291 291 290 291 291 292 291 292 292 292 292
296 295 295 295 295 295 295 295 295 295 295 294 292 290 290 290 290 290 290 291 290 288 288 288 288 288 288 288 289 289 289 289 289 290 290 291 291 291
294 294 294 294 294 293 293 293 293 293 292 291 291 290 290 290 290 289 289 287 287 287 287 287 286 285 285 285 285 286 287 287 288 289 290 291 291 291
292 292 293 293 293 292 292 291 291 290 290 290 289 289 288 288 288 288 287 286 285 285 285 285 284 284 285 285 286 286 287 288 289 289 290 290 290 290
289 289 288 287 287 287 286 286 287 288 288 288 288 287 286 286 286 286 286 285 285 285 284 283 283 284 285 285 285 286 287 288 288 289 289 289 289 289
285 285 284 285 286 286 285 285 286 285 286 285 285 285 285 285 285 285 285 284 284 284 283 283 284 284 285 285 285 285 286 287 288 287 287 287 288 288
284 285 284 284 286 287 285 285 285 285 286 285 285 285 285 285 285 285 284 284 283 282 283 283 283 283 284 285 285 285 286 285 285 285 285 285 286 286
283 283 284 285 286 285 284 284 283 284 284 284 283 283 283 282 283 283 283 283 283 281 283 283 283 282 282 283 284 284 284 284 283 283 284 284 284 284
283 283 283 285 284 284 284 283 282 283 283 282 281 281 281 282 283 283 283 282 282 282 282 282 282 282 281 281 282 282 282 282 282 283 283 283 283 284
283 283 283 283 283 282 281 282 282 282 281 280 281 281 282 283 282 282 282 281 281 281 281 281 281 281 281 281 281 281 281 281 282 283 283 283 283 283
282 283 282 282 282 280 280 281 281 280 280 280 281 281 281 281 281 281 281 280 280 280 280 281 281 281 281 281 281 281 281 282 282 282 283 282 283 283
282 282 280 279 279 280 280 280 280 280 281 281 280 280 280 280 280 280 279 279 279 279 279 280 280 281 281 281 281 281 281 281 282 282 282 282 283 283
283 282 279 279 279 279 279 280 280 280 281 281 280 280 279 279 279 279 279 279 279 279 279 279 279 279 279 280 281 281 281 281 281 281 281 281 282 282
282 281 278 278 278 278 279 279 280 280 280 279 279 279 279 279 279 279 279 279 278 278 278 279 279 279 279 279 280 280 281 281 282 282 282 281 282 282
279 278 278 278 278 278 278 278 278 279 279 279 279 278 278 278 279 278 278 278 278 278 278 278 279 278 278 278 280 281 282 281 282 282 282 282 282 282
280 279 278 277 277 277 277 277 277 278 278 278 278 278 278 278 278 278 277 277 277 277 277 278 278 278 278 278 279 279 280 280 280 281 281 281 281 282
279 278 278 277 277 277 277 277 277 277 277 278 278 277 277 277 277 277 277 278 279 279 279 278 279 279 279 279 279 279 279 280 280 280 281 281 282 282
278 277 277 277 277 277 276 276 276 276 276 276 276 276 276 276 276 276 276 276 277 277 277 278 278 278 278 278 278 278 279 279 280 281 281 282 282 283
277 277 276 276 276 276 276 276 276 276 276 276 276 276 276 276 275 275 275 276 277 277 277 278 278 278 278 278 279 280 280 280 280 280 281 281 282 283

GFSNE_925_thetae_063.txt.gz
Theta_e
317 315 316 317 316 317 318 317 316 312 307 308 307 306 305 305 303 303 303 305 305 305 304 304 305 304 302 301 301 300 300 300 301 301 301 301 301 301
311 311 312 312 312 312 311 310 312 311 309 306 301 302 302 300 300 301 302 303 304 303 302 301 301 301 300 299 299 299 299 301 300 300 300 300 299 299
306 306 307 307 306 305 305 305 305 304 303 301 300 299 299 296 298 299 300 301 301 300 301 299 298 297 297 297 298 299 298 297 297 297 297 297 297 297
303 303 302 302 302 301 302 302 302 301 300 298 295 294 294 294 295 296 296 297 296 298 297 296 296 296 295 296 296 295 295 295 295 294 293 294 294 295
298 298 298 298 298 298 298 298 298 297 297 296 293 292 291 291 291 292 292 292 293 293 292 292 293 293 293 294 294 293 292 292 292 292 293 293 293 293
295 295 295 295 295 294 295 295 295 295 294 294 292 291 291 291 290 291 290 291 291 291 290 289 289 289 289 290 290 290 290 290 290 290 291 291 291 292
294 294 294 294 294 293 293 292 293 293 292 292 291 291 290 290 290 289 289 288 287 287 287 287 287 287 286 286 285 285 287 288 288 289 290 290 291 291
291 291 292 292 292 290 290 291 291 290 289 289 289 288 287 287 287 287 287 286 285 285 285 285 285 284 284 284 284 285 286 287 289 290 290 290 290 291
286 285 285 286 286 285 285 285 285 286 288 287 287 286 286 286 286 285 285 285 285 285 284 283 283 283 284 285 285 286 287 288 288 289 289 289 290 290
284 284 283 285 287 286 285 285 285 285 286 285 285 285 285 285 285 285 285 284 284 284 283 283 283 284 284 285 285 285 286 287 288 288 288 288 288 288
283 284 285 285 287 286 285 284 284 285 285 285 284 285 285 285 285 285 284 284 283 282 283 283 282 283 284 285 284 285 286 287 286 286 286 286 286 286
283 283 283 286 285 285 284 283 282 282 283 283 283 282 282 282 282 283 283 283 283 281 282 282 282 282 282 283 283 284 284 284 284 284 284 285 285 285
283 282 283 284 284 284 283 282 282 283 283 282 280 281 281 281 282 283 282 282 282 282 282 282 282 281 281 281 281 283 284 284 284 283 283 283 283 284
283 282 283 283 284 283 282 282 282 282 281 280 280 281 282 282 282 282 281 281 281 281 281 281 281 281 281 281 281 281 282 282 282 283 283 283 283 283
282 283 282 281 281 280 280 281 281 280 280 280 281 280 281 281 280 280 280 280 280 280 280 280 280 281 281 281 281 281 281 281 281 281 282 283 282 283
283 283 281 279 279 279 279 280 280 280 280 281 280 280 280 280 279 279 279 279 279 279 279 279 279 280 280 281 281 281 281 280 281 281 281 281 281 283
283 282 281 279 278 278 279 279 279 280 280 280 280 279 279 279 279 279 279 279 279 279 279 279 279 279 279 279 279 279 280 280 280 281 281 281 281 281
282 279 279 278 278 278 278 278 278 279 279 279 279 279 279 278 278 278 279 279 278 278 278 279 279 278 278 279 279 279 280 280 280 281 281 281 281 281
282 280 279 278 277 277 277 277 277 277 278 278 278 278 278 278 278 278 278 277 277 277 277 278 278 277 277 277 278 280 281 280 280 281 281 280 281 281
281 280 279 278 278 277 277 277 277 277 277 277 277 278 278 278 277 277 277 277 276 276 277 278 278 278 276 277 278 279 279 279 279 279 279 280 280 280
278 279 278 277 277 277 277 277 276 276 276 276 276 276 276 276 277 276 276 277 278 278 277 277 278 279 279 279 278 278 279 279 280 280 280 279 280 280
278 278 277 277 277 276 276 276 276 276 276 276 276 276 276 276 275 275 275 275 275 275 276 276 277 277 278 277 277 277 278 278 279 279 280 281 281 281
278 277 277 277 277 276 276 276 276 276 276 276 277 277 277 276 276 276 276 275 275 275 275 276 277 277 278 278 278 279 279 279 279 279 279 280 281 281

GFSNE_925_thetae_066.txt.gz
Theta_e
317 316 315 316 314 313 313 312 314 314 309 307 306 305 304 305 304 303 303 303 304 308 310 309 308 307 307 306 305 305 304 303 302 301 302 302 302 302
311 310 309 308 308 309 310 310 311 309 309 306 304 304 302 300 300 301 301 301 302 305 306 304 307 305 303 302 303 302 301 300 301 302 302 302 302 302
303 303 303 304 305 306 306 306 306 306 303 303 301 300 299 298 297 298 300 301 302 303 304 302 302 301 301 300 300 299 299 300 300 299 299 300 300 300
300 300 300 300 301 301 301 301 300 301 301 299 296 297 296 295 295 295 297 298 299 299 299 300 299 298 298 298 297 297 297 297 297 297 297 296 296 296
297 297 297 297 296 296 296 296 296 296 297 297 294 293 293 292 293 293 293 294 295 295 296 296 296 295 295 296 296 296 295 294 294 293 293 293 294 294
295 295 295 295 294 294 294 294 294 294 294 294 292 292 291 291 291 291 291 291 291 292 292 292 292 293 292 291 292 291 291 291 292 292 292 292 292 292
294 294 294 294 294 293 292 291 291 291 291 291 291 290 290 289 289 289 289 288 287 287 287 287 288 288 287 288 288 288 287 288 289 289 290 290 291 291
290 291 291 289 290 288 288 288 289 288 288 288 287 286 286 286 286 286 286 286 285 285 285 285 285 285 285 284 284 284 284 286 287 288 289 291 291 291
284 284 285 287 287 284 284 285 285 285 286 285 285 285 285 285 285 285 284 284 284 284 284 283 283 283 284 284 284 285 287 288 289 289 290 290 290 290
284 285 284 287 288 285 284 284 284 285 286 285 285 285 284 285 285 284 284 284 283 283 282 282 282 283 284 284 284 285 285 287 288 288 289 289 288 288
283 284 285 285 286 286 284 283 282 283 284 284 284 284 284 284 284 284 284 283 283 282 282 282 282 283 283 284 284 285 286 287 287 287 287 287 287 287
283 283 283 285 285 285 284 283 282 282 283 283 282 281 281 282 282 282 283 282 282 281 282 282 282 281 282 282 283 283 285 286 284 284 284 285 285 285
283 282 282 284 285 284 284 282 282 283 282 281 280 280 281 281 282 282 282 282 282 282 282 281 281 281 281 281 281 282 283 283 283 283 284 284 284 284
282 282 283 283 283 283 282 282 283 282 281 279 280 281 281 281 282 282 281 281 280 280 281 280 280 281 281 281 281 281 281 281 282 284 284 283 282 282
282 283 282 281 280 279 280 281 281 280 280 280 281 280 280 280 280 280 279 280 279 279 280 280 280 280 280 280 280 280 280 281 281 281 281 282 282 282
283 283 282 281 279 279 279 279 280 280 280 280 280 280 280 279 279 279 279 278 279 279 279 279 279 279 279 279 279 280 280 280 281 280 280 280 280 281
284 283 280 279 279 278 278 278 279 279 280 280 280 279 279 279 279 278 278 278 279 279 278 279 279 279 278 278 278 278 279 279 279 280 280 280 281 281
283 282 280 279 278 277 277 277 277 278 278 279 279 279 278 278 278 278 278 278 278 278 277 278 278 278 278 279 280 280 279 279 280 280 280 280 281 281
283 282 281 280 279 278 277 277 277 277 277 277 278 278 278 277 277 278 277 277 277 276 277 277 277 276 275 276 278 280 280 280 280 280 280 280 280 280
280 279 279 280 279 278 277 277 277 277 276 276 276 276 276 277 277 277 277 277 276 276 276 277 277 277 275 276 278 278 279 279 279 279 279 279 279 279
280 278 278 278 278 277 277 277 277 276 276 276 276 276 276 275 275 276 275 276 277 277 276 276 277 277 278 278 277 277 278 279 279 279 279 279 279 279
280 279 278 278 277 277 277 276 276 276 276 276 276 276 276 276 275 275 275 275 275 275 275 276 277 276 276 277 277 277 277 278 279 279 280 280 280 280
279 278 278 278 277 277 277 277 277 277 277 277 277 278 277 277 277 277 276 276 275 275 275 275 276 276 276 276 277 278 278 278 278 278 279 279 280 280

GFSNE_925_thetae_069.txt.gz
Theta_e
318 316 316 315 314 314 313 311 313 313 310 307 307 307 307 306 306 305 304 302 303 304 306 310 310 311 310 308 308 308 307 307 306 305 305 304 304 304
311 311 310 309 308 308 308 308 308 310 312 306 303 302 302 301 301 300 300 301 301 304 306 306 304 306 306 306 306 306 306 304 303 302 303 303 304 303
304 305 304 304 305 304 304 304 304 305 305 301 299 298 298 298 297 298 299 300 301 301 303 303 304 305 304 303 302 301 301 301 300 300 301 301 301 301
301 301 300 300 300 299 300 301 300 300 301 300 297 296 296 295 295 295 296 297 298 298 299 300 301 301 300 300 299 299 299 298 298 299 298 299 299 299
297 297 297 297 296 296 297 297 297 296 297 297 294 293 293 294 293 293 294 294 295 295 296 297 298 298 298 298 298 297 297 297 297 296 295 295 295 296
296 295 295 295 294 294 294 294 294 294 294 294 293 292 291 291 291 291 292 291 292 292 292 293 294 294 295 295 295 294 294 293 293 293 293 293 293 293
294 294 294 293 293 292 291 290 291 290 291 291 291 291 289 289 288 287 288 287 287 287 287 287 287 288 288 288 289 290 290 290 290 290 291 291 291 291
292 291 291 290 289 288 288 287 288 287 286 288 287 287 286 285 285 285 286 286 288 285 285 286 285 285 285 285 285 285 284 284 286 288 289 290 290 291
284 285 286 287 286 284 284 284 285 287 285 285 285 285 285 284 284 284 284 284 285 284 284 284 283 283 283 284 284 283 285 287 288 289 289 290 290 290
285 285 286 287 287 285 284 283 284 285 285 285 285 285 285 285 285 285 284 284 283 283 282 283 282 283 284 284 284 284 285 287 288 289 289 289 289 289
283 285 285 286 287 286 284 283 282 282 284 284 284 284 284 284 284 284 284 284 283 282 282 282 282 282 282 282 283 284 286 287 287 288 288 288 288 288
283 283 284 286 286 285 284 283 281 283 283 282 282 281 281 281 282 282 282 282 282 283 281 282 282 282 283 282 283 283 284 285 285 286 286 286 286 286
283 282 282 284 284 285 284 282 283 283 282 281 280 280 281 281 282 282 282 282 282 282 282 281 281 282 282 282 282 282 282 282 283 283 284 284 284 284
282 282 283 283 283 282 282 282 283 282 280 280 280 280 281 281 281 281 281 281 280 280 280 280 280 281 281 281 282 282 281 281 282 283 282 282 282 283
282 283 283 282 280 280 280 281 280 280 280 280 280 280 280 280 280 280 280 279 279 279 279 279 279 280 279 280 281 281 281 282 281 281 282 282 282 282
283 283 282 281 280 279 279 279 279 280 280 280 280 280 280 279 280 279 279 279 279 279 279 279 279 279 279 279 279 280 281 281 281 281 281 281 281 281
284 283 282 280 279 278 278 278 278 279 279 280 280 280 280 280 280 279 279 279 279 279 280 278 278 278 278 278 278 279 280 280 280 280 280 280 281 281
284 283 282 281 280 279 278 278 278 278 278 278 279 279 279 279 279 278 279 279 279 278 278 277 276 277 278 280 280 280 280 280 280 280 280 280 280 281
284 283 282 281 280 279 278 278 277 277 277 277 277 277 277 278 278 278 278 278 278 278 277 277 276 275 277 279 280 279 279 280 280 280 280 281 281 281
283 282 280 279 279 279 278 278 277 277 277 277 276 276 276 276 276 276 276 276 276 276 276 277 276 276 276 278 279 279 279 279 280 280 280 280 280 280
282 281 280 279 278 278 278 277 277 277 277 276 276 276 276 275 275 275 275 276 277 278 277 278 278 278 277 277 277 278 279 279 279 279 280 280 279 280
281 281 280 279 278 278 277 277 277 277 276 276 276 276 276 276 276 276 276 275 275 276 276 277 277 276 275 276 277 278 278 279 279 279 279 280 280 281
281 280 280 279 279 278 278 277 277 277 277 277 277 278 277 277 277 277 276 275 275 275 276 276 276 276 276 276 277 278 278 278 279 279 279 280 280 280

GFSNE_925_thetae_072.txt.gz
Theta_e
317 316 316 315 314 314 312 313 315 315 314 310 309 305 304 303 304 304 303 301 302 305 305 307 308 310 313 314 314 313 310 308 308 307 306 306 306 306
310 309 308 307 306 306 307 308 308 311 313 307 303 303 302 299 300 301 301 300 300 302 306 305 305 306 306 306 307 309 308 307 306 305 304 304 304 304
305 304 304 304 304 304 304 304 305 305 308 302 301 299 299 298 297 297 299 300 300 300 302 302 302 303 303 304 304 305 305 305 304 303 302 302 301 302
301 301 300 300 300 300 300 300 300 300 301 304 297 296 296 295 295 296 295 296 296 298 299 299 299 300 300 300 300 300 300 301 301 300 299 299 300 301
298 298 297 297 297 297 296 297 298 298 299 300 298 296 294 294 295 295 294 294 293 295 296 296 297 298 299 299 299 298 298 298 298 298 298 298 297 298
295 295 295 295 295 294 294 294 295 297 297 298 297 295 294 292 292 293 296 293 291 290 291 292 294 295 295 296 296 297 297 297 296 296 295 295 294 294
293 292 293 293 293 292 293 293 292 293 294 295 295 295 293 292 291 290 291 290 290 288 289 289 289 289 289 289 291 293 293 293 293 293 293 293 293 292
292 291 290 290 288 288 287 287 288 289 289 290 290 289 289 288 288 287 288 288 290 287 287 287 286 287 287 286 285 285 285 286 287 287 289 290 290 291
286 286 287 287 286 286 285 285 285 287 286 287 287 287 287 286 285 286 287 287 287 286 284 286 285 285 285 285 285 284 284 286 287 288 289 289 290 291
285 286 288 288 288 286 286 285 285 286 286 286 286 286 286 286 286 286 285 285 285 285 284 286 285 286 286 286 285 284 285 286 288 289 290 290 290 290
285 286 286 287 287 286 285 284 284 283 283 283 283 283 284 284 284 285 286 285 286 285 284 284 286 285 285 285 285 284 286 287 287 288 289 289 289 289
284 284 284 286 286 286 285 284 283 284 284 284 283 281 281 282 281 283 284 284 285 286 284 284 284 284 286 285 284 285 285 285 286 286 286 287 287 288
284 284 284 284 285 285 285 284 284 284 283 282 281 282 282 283 283 283 282 283 284 284 283 282 282 282 283 284 284 284 284 284 284 284 284 285 285 285
284 283 284 283 283 282 282 283 284 283 282 281 282 282 283 283 282 282 281 281 282 281 281 281 281 282 282 282 283 285 284 284 284 284 284 284 284 284
283 284 284 283 282 281 280 282 281 281 281 282 282 283 282 282 281 281 281 280 280 280 280 280 280 281 281 281 282 282 282 284 283 282 283 284 284 284
283 284 283 282 281 280 279 279 280 281 281 282 282 282 281 281 281 281 281 280 280 281 281 279 279 279 280 281 281 281 282 282 284 283 283 283 283 283
284 284 283 282 281 280 280 279 280 280 280 281 281 281 281 281 281 281 280 280 280 281 281 281 280 279 279 279 280 281 282 282 283 283 282 282 283 283
285 285 284 283 282 281 280 280 279 279 280 280 280 280 281 281 281 280 280 280 280 281 281 281 280 279 280 281 280 280 282 282 283 283 282 282 282 282
285 285 284 283 283 281 281 280 280 280 279 278 279 279 279 279 279 279 280 280 280 280 280 280 279 279 280 281 282 281 281 282 282 282 282 282 283 283
284 284 284 283 282 281 281 281 280 279 279 278 278 278 278 278 278 278 279 279 279 279 279 279 279 279 279 280 281 281 280 280 280 281 282 282 282 282
284 283 282 281 281 280 280 280 279 279 279 278 278 277 277 277 277 277 278 278 278 279 280 280 281 281 280 278 278 279 280 280 280 280 280 281 281 281
284 283 282 281 280 280 279 279 279 278 278 278 278 277 277 277 277 277 277 278 279 279 279 279 279 279 278 277 278 279 279 280 280 281 280 280 281 282
283 281 280 281 280 280 279 278 278 278 278 277 277 277 277 276 276 276 277 278 278 278 278 278 279 279 279 278 278 279 279 279 280 281 281 281 281 281